K6OUA-11 Weather Reports


Display with metric or nautical units.
time (UTC)temp
F
wind
direction
speed
MPH
gust
MPH
rain 1hr
in
rain 24hr
in
rain mn
in
humidity
%
barometer
mb
20240714134915 60 317 0.0 1.0 0.00 0.00 0.00 96
20240714134714 60 91 0.0 0.0 0.00 0.00 0.00 96
20240714134512 60 91 0.0 0.0 0.00 0.00 0.00 96
20240714134310 60 91 0.0 0.0 0.00 0.00 0.00 96
20240714134109 60 91 0.0 0.0 0.00 0.00 0.00 96
20240714133906 60 91 0.0 0.0 0.00 0.00 0.00 96
20240714133704 60 91 0.0 0.0 0.00 0.00 0.00 96
20240714133503 60 91 0.0 0.0 0.00 0.00 0.00 96
20240714133300 60 91 0.0 0.0 0.00 0.00 0.00 96
20240714133058 60 91 0.0 0.0 0.00 0.00 0.00 96
20240714132856 60 91 0.0 0.0 0.00 0.00 0.00 96
20240714132655 60 91 0.0 0.0 0.00 0.00 0.00 96
20240714132453 60 239 0.0 0.0 0.00 0.00 0.00 96
20240714132049 60 239 0.0 0.0 0.00 0.00 0.00 96
20240714131847 60 239 0.0 0.0 0.00 0.00 0.00 96
20240714131645 60 239 0.0 0.0 0.00 0.00 0.00 96
20240714131443 60 239 0.0 0.0 0.00 0.00 0.00 96
20240714131242 60 239 0.0 3.0 0.00 0.00 0.00 96
20240714131039 60 239 0.0 3.0 0.00 0.00 0.00 96
20240714130635 60 295 0.0 0.0 0.00 0.00 0.00 96
20240714130434 60 295 0.0 0.0 0.00 0.00 0.00 96
20240714130232 60 295 0.0 0.0 0.00 0.00 0.00 96
20240714130030 60 295 0.0 0.0 0.00 0.00 0.00 96
20240714125828 60 295 0.0 0.0 0.00 0.00 0.00 96
20240714125626 60 295 0.0 0.0 0.00 0.00 0.00 96
20240714125424 60 295 0.0 0.0 0.00 0.00 0.00 96
20240714125222 60 295 0.0 0.0 0.00 0.00 0.00 96
20240714125020 60 295 0.0 0.0 0.00 0.00 0.00 96
20240714124818 60 295 0.0 0.0 0.00 0.00 0.00 96
20240714124617 60 295 0.0 0.0 0.00 0.00 0.00 96
20240714124414 60 295 0.0 0.0 0.00 0.00 0.00 96
20240714124011 60 295 0.0 0.0 0.00 0.00 0.00 96
20240714123809 60 295 0.0 0.0 0.00 0.00 0.00 96
20240714123607 60 295 0.0 0.0 0.00 0.00 0.00 96
20240714123405 60 295 0.0 4.0 0.00 0.00 0.00 96
20240714123203 60 295 0.0 4.0 0.00 0.00 0.00 96
20240714123002 60 295 0.0 4.0 0.00 0.00 0.00 96
20240714122759 59 296 1.0 5.0 0.00 0.00 0.00 96
20240714122557 60 291 0.0 5.0 0.00 0.00 0.00 96
20240714122154 60 279 0.0 5.0 0.00 0.00 0.00 96
20240714121952 60 279 0.0 5.0 0.00 0.00 0.00 95
20240714121750 60 293 3.0 4.0 0.00 0.00 0.00 95
20240714121548 60 292 3.0 4.0 0.00 0.00 0.00 95
20240714121346 60 288 2.0 0.0 0.00 0.00 0.00 95
20240714121144 60 303 2.0 0.0 0.00 0.00 0.00 95
20240714120942 60 285 3.0 0.0 0.00 0.00 0.00 95
20240714120539 60 234 0.0 0.0 0.00 0.00 0.00 95
20240714120135 60 234 0.0 0.0 0.00 0.00 0.00 95
20240714115934 60 234 0.0 0.0 0.00 0.00 0.00 95
20240714115731 60 234 0.0 0.0 0.00 0.00 0.00 95
20240714115529 60 234 0.0 0.0 0.00 0.00 0.00 95
20240714115327 60 234 0.0 0.0 0.00 0.00 0.00 95
20240714114721 60 234 0.0 0.0 0.00 0.00 0.00 95
20240714114520 60 234 0.0 0.0 0.00 0.00 0.00 95
20240714114318 60 234 0.0 0.0 0.00 0.00 0.00 95
20240714114116 60 234 0.0 0.0 0.00 0.00 0.00 95
20240714113710 60 234 0.0 0.0 0.00 0.00 0.00 95
20240714113508 60 234 0.0 0.0 0.00 0.00 0.00 95
20240714113308 60 234 0.0 2.0 0.00 0.00 0.00 95
20240714113105 60 234 0.0 2.0 0.00 0.00 0.00 95
20240714112904 60 234 0.0 0.0 0.00 0.00 0.00 95
20240714112702 60 234 0.0 0.0 0.00 0.00 0.00 95
20240714112500 60 278 0.0 0.0 0.00 0.00 0.00 95
20240714112258 60 278 0.0 4.0 0.00 0.00 0.00 95
20240714112057 60 278 0.0 4.0 0.00 0.00 0.00 95
20240714111855 60 278 0.0 6.0 0.00 0.00 0.00 95
20240714111653 60 295 2.0 6.0 0.00 0.00 0.00 95
20240714111451 60 288 2.0 6.0 0.00 0.00 0.00 95
20240714111249 60 278 3.0 3.0 0.00 0.00 0.00 95
20240714111048 60 288 3.0 3.0 0.00 0.00 0.00 95
20240714110845 60 267 2.0 3.0 0.00 0.00 0.00 95
20240714110643 60 239 0.0 3.0 0.00 0.00 0.00 95
20240714110441 60 293 2.0 3.0 0.00 0.00 0.00 95
20240714110240 60 270 0.0 0.0 0.00 0.00 0.00 95
20240714110038 60 270 0.0 0.0 0.00 0.00 0.00 95
20240714105836 60 270 0.0 0.0 0.00 0.00 0.00 95
20240714105634 60 270 0.0 0.0 0.00 0.00 0.00 95
20240714105432 60 270 0.0 0.0 0.00 0.00 0.00 95
20240714105230 60 270 0.0 3.0 0.00 0.00 0.00 95
20240714105028 60 270 0.0 3.0 0.00 0.00 0.00 95
20240714104826 60 270 0.0 4.0 0.00 0.00 0.00 95
20240714104624 60 270 0.0 4.0 0.00 0.00 0.00 95
20240714104422 60 288 3.0 4.0 0.00 0.00 0.00 95
20240714104221 60 248 0.0 0.0 0.00 0.00 0.00 95
20240714104019 60 248 0.0 0.0 0.00 0.00 0.00 95
20240714103819 60 248 0.0 0.0 0.00 0.00 0.00 95
20240714103615 60 248 0.0 0.0 0.00 0.00 0.00 95
20240714103413 60 248 0.0 0.0 0.00 0.00 0.00 95
20240714103211 60 248 0.0 0.0 0.00 0.00 0.00 95
20240714103009 60 248 0.0 0.0 0.00 0.00 0.00 94
20240714102807 60 248 0.0 0.0 0.00 0.00 0.00 94
20240714102403 60 248 0.0 0.0 0.00 0.00 0.00 94
20240714102201 60 248 0.0 0.0 0.00 0.00 0.00 94
20240714102000 60 248 0.0 0.0 0.00 0.00 0.00 94
20240714101758 60 248 0.0 0.0 0.00 0.00 0.00 94
20240714101556 60 248 0.0 0.0 0.00 0.00 0.00 94
20240714101358 60 248 0.0 0.0 0.00 0.00 0.00 94 202.4
20240714101354 60 248 0.0 0.0 0.00 0.00 0.00 94
20240714101152 60 248 0.0 0.0 0.00 0.00 0.00 94
20240714100546 60 248 0.0 0.0 0.00 0.00 0.00 94
20240714100344 60 248 0.0 0.0 0.00 0.00 0.00 94
20240714100144 60 248 0.0 0.0 0.00 0.00 0.00 94
20240714095940 60 248 0.0 0.0 0.00 0.00 0.00 94
20240714095738 61 248 0.0 0.0 0.00 0.00 0.00 94
20240714095133 61 248 0.0 0.0 0.00 0.00 0.00 94
20240714094931 61 248 0.0 0.0 0.00 0.00 0.00 94
20240714094729 61 248 0.0 0.0 0.00 0.00 0.00 94
20240714094528 61 248 0.0 0.0 0.00 0.00 0.00 94
20240714094127 61 248 0.0 4.0 0.00 0.00 0.00 94 202.4
20240714094123 61 248 0.0 4.0 0.00 0.00 0.00 94
20240714093922 61 248 0.0 4.0 0.00 0.00 0.00 93
20240714093719 61 298 1.0 6.0 0.00 0.00 0.00 94
20240714093518 61 291 2.0 6.0 0.00 0.00 0.00 94
20240714093316 61 285 4.0 5.0 0.00 0.00 0.00 94
20240714093114 61 284 4.0 5.0 0.00 0.00 0.00 93
20240714092912 61 288 4.0 5.0 0.00 0.00 0.00 93
20240714092508 61 291 4.0 6.0 0.00 0.00 0.00 93
20240714092104 61 275 6.0 6.0 0.00 0.00 0.00 93
20240714091902 61 281 5.0 8.0 0.00 0.00 0.00 93
20240714091700 61 282 4.0 8.0 0.00 0.00 0.00 93
20240714091459 61 293 4.0 8.0 0.00 0.00 0.00 93
20240714091257 61 285 6.0 8.0 0.00 0.00 0.00 93
20240714091055 61 286 7.0 8.0 0.00 0.00 0.00 92
20240714090853 61 288 6.0 8.0 0.00 0.00 0.00 92
20240714090651 61 278 7.0 8.0 0.00 0.00 0.00 92
20240714090449 61 284 5.0 8.0 0.00 0.00 0.00 91
20240714090248 62 289 4.0 9.0 0.00 0.00 0.00 91
20240714090046 62 271 7.0 9.0 0.00 0.00 0.00 91
20240714085843 62 289 7.0 7.0 0.00 0.00 0.00 90
20240714085440 62 278 4.0 7.0 0.00 0.00 0.00 89
20240714085238 62 272 6.0 0.0 0.00 0.00 0.00 88
20240714085036 63 291 3.0 0.0 0.00 0.00 0.00 86
20240714084834 63 295 0.0 0.0 0.00 0.00 0.00 86
20240714084632 63 295 0.0 0.0 0.00 0.00 0.00 86
20240714084430 63 295 0.0 0.0 0.00 0.00 0.00 85
20240714084228 64 295 0.0 0.0 0.00 0.00 0.00 85
20240714083824 64 295 0.0 0.0 0.00 0.00 0.00 85
20240714083622 64 295 0.0 0.0 0.00 0.00 0.00 85
20240714083421 64 295 0.0 0.0 0.00 0.00 0.00 85
20240714083219 64 295 0.0 2.0 0.00 0.00 0.00 85
20240714083017 64 295 0.0 2.0 0.00 0.00 0.00 85
20240714082825 64 295 0.0 2.0 0.00 0.00 0.00 85
20240714082815 64 295 0.0 2.0 0.00 0.00 0.00 85
20240714082613 64 295 0.0 2.0 0.00 0.00 0.00 85
20240714082411 64 299 2.0 0.0 0.00 0.00 0.00 85
20240714082210 64 296 0.0 0.0 0.00 0.00 0.00 85
20240714082007 64 296 0.0 0.0 0.00 0.00 0.00 84
20240714081805 64 296 0.0 2.0 0.00 0.00 0.00 84
20240714081604 64 296 0.0 2.0 0.00 0.00 0.00 84
20240714081402 64 296 0.0 5.0 0.00 0.00 0.00 85
20240714080958 64 305 1.0 5.0 0.00 0.00 0.00 85
20240714080756 64 293 3.0 4.0 0.00 0.00 0.00 85
20240714080555 64 291 3.0 4.0 0.00 0.00 0.00 85
20240714080353 64 293 3.0 5.0 0.00 0.00 0.00 85
20240714080150 64 310 3.0 5.0 0.00 0.00 0.00 85
20240714075948 64 299 3.0 5.0 0.00 0.00 0.00 85
20240714075746 64 293 5.0 5.0 0.00 0.00 0.00 85
20240714075544 64 292 3.0 5.0 0.00 0.00 0.00 85
20240714075342 64 295 3.0 4.0 0.00 0.00 0.00 85
20240714075140 64 291 4.0 4.0 0.00 0.00 0.00 85
20240714074939 64 296 3.0 4.0 0.00 0.00 0.00 84
20240714074333 64 275 0.0 0.0 0.00 0.00 0.00 84
20240714074131 64 275 0.0 0.0 0.00 0.00 0.00 85
20240714073929 64 275 0.0 0.0 0.00 0.00 0.00 84
20240714073727 64 275 0.0 0.0 0.00 0.00 0.00 84
20240714073525 64 275 0.0 0.0 0.00 0.00 0.00 84
20240714073323 64 275 0.0 0.0 0.00 0.00 0.00 84
20240714073122 64 275 0.0 0.0 0.00 0.00 0.00 85
20240714072516 64 275 0.0 2.0 0.00 0.00 0.00 85
20240714072112 64 279 1.0 3.0 0.00 0.00 0.00 85
20240714071910 64 279 2.0 2.0 0.00 0.00 0.00 85
20240714071708 64 286 3.0 2.0 0.00 0.00 0.00 85
20240714071506 64 292 2.0 2.0 0.00 0.00 0.00 85
20240714071304 64 289 2.0 2.0 0.00 0.00 0.00 85
20240714071103 64 289 1.0 2.0 0.00 0.00 0.00 85
20240714070901 64 285 2.0 0.0 0.00 0.00 0.00 84
20240714070659 64 292 2.0 0.0 0.00 0.00 0.00 84
20240714070457 64 262 0.0 0.0 0.00 0.00 0.00 84
20240714070255 64 262 0.0 0.0 0.00 0.00 0.00 84
20240714070053 65 262 0.0 0.0 0.00 0.00 0.00 85
20240714065851 65 262 0.0 0.0 0.00 0.00 0.00 85
20240714065447 64 262 0.0 0.0 0.00 0.00 0.00 85
20240714065245 64 262 0.0 0.0 0.00 0.00 0.00 86
20240714065044 64 262 0.0 0.0 0.00 0.00 0.00 86
20240714064842 64 262 0.0 0.0 0.00 0.00 0.00 86
20240714064640 64 262 0.0 0.0 0.00 0.00 0.00 86
20240714064236 64 262 0.0 0.0 0.00 0.00 0.00 86
20240714064034 64 262 0.0 0.0 0.00 0.00 0.00 86
20240714063832 64 262 0.0 0.0 0.00 0.00 0.00 86
20240714063630 64 262 0.0 0.0 0.00 0.00 0.00 86
20240714063429 64 262 0.0 0.0 0.00 0.00 0.00 86
20240714063226 64 262 0.0 0.0 0.00 0.00 0.00 86
20240714063024 64 262 0.0 0.0 0.00 0.00 0.00 86
20240714062823 64 262 0.0 0.0 0.00 0.00 0.00 86
20240714062620 64 262 0.0 0.0 0.00 0.00 0.00 86
20240714062419 64 262 0.0 0.0 0.00 0.00 0.00 86
20240714062217 64 262 0.0 0.0 0.00 0.00 0.00 86
20240714062140 64 262 0.0 0.0 0.00 0.00 0.00 85
20240714062015 64 262 0.0 0.0 0.00 0.00 0.00 85
20240714061813 64 262 0.0 0.0 0.00 0.00 0.00 85
20240714061611 64 262 0.0 0.0 0.00 0.00 0.00 85
20240714061410 64 262 0.0 0.0 0.00 0.00 0.00 85
20240714061207 64 262 0.0 0.0 0.00 0.00 0.00 85
20240714061005 64 262 0.0 0.0 0.00 0.00 0.00 85
20240714060602 64 262 0.0 0.0 0.00 0.00 0.00 85
20240714060410 64 262 0.0 0.0 0.00 0.00 0.00 85
20240714060400 64 262 0.0 0.0 0.00 0.00 0.00 85
20240714060200 64 262 0.0 0.0 0.00 0.00 0.00 85 202.4
20240714060158 64 262 0.0 0.0 0.00 0.00 0.00 85
20240714055956 64 262 0.0 0.0 0.00 0.00 0.00 85
20240714055754 64 262 0.0 0.0 0.00 0.00 0.00 85
20240714055554 64 262 0.0 0.0 0.00 0.00 0.00 85
20240714055552 64 262 0.0 0.0 0.00 0.00 0.00 85
20240714055350 64 262 0.0 0.0 0.00 0.00 0.00 86
20240714055148 64 262 0.0 0.0 0.00 0.00 0.00 86
20240714054946 64 262 0.0 0.0 0.00 0.00 0.00 86
20240714054744 64 262 0.0 0.0 0.00 0.00 0.00 86
20240714054543 64 262 0.0 0.0 0.00 0.00 0.00 86
20240714054341 64 262 0.0 0.0 0.00 0.00 0.00 86
20240714054139 64 262 0.0 0.0 0.00 0.00 0.00 86
20240714053937 64 262 0.0 0.0 0.00 0.00 0.00 86
20240714053533 64 262 0.0 0.0 0.00 0.00 0.00 86
20240714053331 64 262 0.0 0.0 0.00 0.00 0.00 86
20240714053140 64 262 0.0 0.0 0.00 0.00 0.00 86
20240714053137 64 262 0.0 0.0 0.00 0.00 0.00 86
20240714053129 64 262 0.0 0.0 0.00 0.00 0.00 86
20240714052927 64 262 0.0 0.0 0.00 0.00 0.00 86
20240714052725 64 262 0.0 0.0 0.00 0.00 0.00 86
20240714052523 64 262 0.0 0.0 0.00 0.00 0.00 86
20240714052120 64 262 0.0 0.0 0.00 0.00 0.00 86
20240714051918 64 262 0.0 0.0 0.00 0.00 0.00 86
20240714051717 64 262 0.0 0.0 0.00 0.00 0.00 86
20240714051110 64 262 0.0 3.0 0.00 0.00 0.00 86
20240714050909 64 262 0.0 4.0 0.00 0.00 0.00 86
20240714050706 64 262 0.0 4.0 0.00 0.00 0.00 87
20240714050505 64 293 2.0 4.0 0.00 0.00 0.00 87
20240714050303 64 282 3.0 0.0 0.00 0.00 0.00 87
20240714050101 64 265 0.0 0.0 0.00 0.00 0.00 86
20240714045657 64 265 0.0 0.0 0.00 0.00 0.00 86
20240714045455 64 265 0.0 0.0 0.00 0.00 0.00 86
20240714045253 64 265 0.0 0.0 0.00 0.00 0.00 86
20240714045051 64 265 0.0 0.0 0.00 0.00 0.00 87
20240714044849 64 265 0.0 0.0 0.00 0.00 0.00 87
20240714044647 64 265 0.0 0.0 0.00 0.00 0.00 86
20240714044445 64 265 0.0 0.0 0.00 0.00 0.00 86
20240714044042 64 265 0.0 0.0 0.00 0.00 0.00 86
20240714043840 64 265 0.0 0.0 0.00 0.00 0.00 86
20240714043638 64 265 0.0 0.0 0.00 0.00 0.00 86
20240714043032 64 265 0.0 0.0 0.00 0.00 0.00 86
20240714042830 64 265 0.0 0.0 0.00 0.00 0.00 86
20240714042628 64 265 0.0 0.0 0.00 0.00 0.00 86
20240714042426 64 265 0.0 0.0 0.00 0.00 0.00 86
20240714042023 64 265 0.0 0.0 0.00 0.00 0.00 86
20240714041819 64 265 0.0 0.0 0.00 0.00 0.00 85
20240714041619 64 265 0.0 0.0 0.00 0.00 0.00 85
20240714041417 64 265 0.0 0.0 0.00 0.00 0.00 85
20240714041216 65 265 0.0 0.0 0.00 0.00 0.00 85
20240714041214 65 265 0.0 0.0 0.00 0.00 0.00 85
20240714041012 65 265 0.0 0.0 0.00 0.00 0.00 85
20240714040811 65 265 0.0 0.0 0.00 0.00 0.00 85
20240714040609 65 265 0.0 0.0 0.00 0.00 0.00 85
20240714040407 65 265 0.0 0.0 0.00 0.00 0.00 85
20240714040003 65 265 0.0 0.0 0.00 0.00 0.00 85
20240714035600 65 265 0.0 0.0 0.00 0.00 0.00 85
20240714035358 65 265 0.0 0.0 0.00 0.00 0.00 84
20240714035156 65 265 0.0 0.0 0.00 0.00 0.00 84
20240714034954 65 265 0.0 0.0 0.00 0.00 0.00 84
20240714034752 65 265 0.0 0.0 0.00 0.00 0.00 84
20240714034550 65 265 0.0 0.0 0.00 0.00 0.00 84
20240714034348 65 265 0.0 0.0 0.00 0.00 0.00 84
20240714034146 65 265 0.0 0.0 0.00 0.00 0.00 84
20240714033945 65 265 0.0 0.0 0.00 0.00 0.00 84
20240714033742 65 265 0.0 0.0 0.00 0.00 0.00 84
20240714033539 65 265 0.0 0.0 0.00 0.00 0.00 84
20240714033339 65 265 0.0 3.0 0.00 0.00 0.00 84
20240714033137 65 265 0.0 3.0 0.00 0.00 0.00 84
20240714032935 65 265 0.0 3.0 0.00 0.00 0.00 84
20240714032733 65 277 2.0 3.0 0.00 0.00 0.00 84
20240714032531 65 260 0.0 3.0 0.00 0.00 0.00 84
20240714032329 65 270 1.0 4.0 0.00 0.00 0.00 84
20240714032127 65 279 3.0 4.0 0.00 0.00 0.00 84
20240714031320 66 298 3.0 5.0 0.00 0.00 0.00 83
20240714031116 66 281 3.0 5.0 0.00 0.00 0.00 83
20240714030916 66 282 1.0 5.0 0.00 0.00 0.00 83
20240714030714 66 274 4.0 6.0 0.00 0.00 0.00 83
20240714030512 66 277 4.0 6.0 0.00 0.00 0.00 83
20240714030318 66 260 3.0 5.0 0.00 0.00 0.00 83
20240714030310 66 260 3.0 5.0 0.00 0.00 0.00 83
20240714025906 66 293 3.0 6.0 0.00 0.00 0.00 82
20240714025703 66 285 3.0 6.0 0.00 0.00 0.00 82
20240714025510 66 261 2.0 6.0 0.00 0.00 0.00 82 1310.7
20240714025504 66 261 2.0 6.0 0.00 0.00 0.00 82
20240714025301 66 277 5.0 8.0 0.00 0.00 0.00 82
20240714024857 66 274 3.0 6.0 0.00 0.00 0.00 82
20240714024655 66 275 6.0 6.0 0.00 0.00 0.00 81
20240714024452 67 253 3.0 6.0 0.00 0.00 0.00 81
20240714024252 66 260 3.0 11.0 0.00 0.00 0.00 81
20240714024048 66 281 4.0 11.0 0.00 0.00 0.00 81
20240714023849 67 270 6.0 11.0 0.00 0.00 0.00 81
20240714023651 67 275 8.0 11.0 0.00 0.00 0.00 81
20240714023645 67 275 8.0 11.0 0.00 0.00 0.00 81
20240714023444 67 279 7.0 11.0 0.00 0.00 0.00 80
20240714022839 68 271 8.0 9.0 0.00 0.00 0.00 77
20240714022636 68 281 6.0 9.0 0.00 0.00 0.00 77
20240714022434 68 257 5.0 9.0 0.00 0.00 0.00 77
20240714022232 68 255 3.0 12.0 0.00 0.00 0.00 77
20240714022030 68 260 5.0 12.0 0.00 0.00 0.00 78
20240714021828 68 286 7.0 14.0 0.00 0.00 0.00 78
20240714021627 68 275 7.0 14.0 0.00 0.00 0.00 77
20240714021223 68 275 6.0 14.0 0.00 0.00 0.00 76
20240714021021 68 279 8.0 14.0 0.00 0.00 0.00 76
20240714020818 69 260 11.0 14.0 0.00 0.00 0.00 75
20240714020617 69 278 7.0 14.0 0.00 0.00 0.00 75
20240714020422 69 261 9.0 14.0 0.00 0.00 0.00 74
20240714020415 69 261 9.0 14.0 0.00 0.00 0.00 74
20240714020213 70 255 11.0 13.0 0.00 0.00 0.00 73
20240714020011 70 282 8.0 13.0 0.00 0.00 0.00 73
20240714015810 69 274 8.0 16.0 0.00 0.00 0.00 73
20240714015607 70 258 7.0 16.0 0.00 0.00 0.00 73
20240714015539 70 274 9.0 14.0 0.00 0.00 0.00 73
20240714015405 70 274 9.0 14.0 0.00 0.00 0.00 73
20240714015203 70 258 13.0 14.0 0.00 0.00 0.00 72
20240714015002 70 262 12.0 14.0 0.00 0.00 0.00 71
20240714014759 71 272 9.0 15.0 0.00 0.00 0.00 71
20240714014556 71 264 11.0 15.0 0.00 0.00 0.00 70
20240714014519 71 260 12.0 16.0 0.00 0.00 0.00 69
20240714014354 71 260 12.0 16.0 0.00 0.00 0.00 69
20240714014154 72 279 11.0 16.0 0.00 0.00 0.00 69
20240714013950 72 261 10.0 16.0 0.00 0.00 0.00 68
20240714013750 72 279 10.0 13.0 0.00 0.00 0.00 67
20240714013548 73 271 9.0 13.0 0.00 0.00 0.00 66
20240714013143 74 254 7.0 16.0 0.00 0.00 0.00 64
20240714012942 74 265 12.0 16.0 0.00 0.00 0.00 63
20240714012740 74 270 8.0 14.0 0.00 0.00 0.00 62
20240714012539 75 260 11.0 14.0 0.00 0.00 0.00 61 202.4
20240714012334 76 267 7.0 13.0 0.00 0.00 0.00 61
20240714012135 76 264 9.0 13.0 0.00 0.00 0.00 60
20240714011943 76 265 10.0 13.0 0.00 0.00 0.00 58
20240714011932 76 275 11.0 13.0 0.00 0.00 0.00 60
20240714011730 76 265 10.0 13.0 0.00 0.00 0.00 58
20240714011325 76 285 8.0 15.0 0.00 0.00 0.00 59
20240714011124 76 284 11.0 15.0 0.00 0.00 0.00 58
20240714010923 76 270 12.0 15.0 0.00 0.00 0.00 58
20240714010721 76 284 8.0 14.0 0.00 0.00 0.00 59
20240714010517 77 264 11.0 14.0 0.00 0.00 0.00 58
20240714010318 77 264 8.0 12.0 0.00 0.00 0.00 58
20240714010115 78 286 9.0 12.0 0.00 0.00 0.00 58
20240714005913 77 274 9.0 12.0 0.00 0.00 0.00 58
20240714005509 77 278 7.0 12.0 0.00 0.00 0.00 58
20240714005105 78 272 10.0 13.0 0.00 0.00 0.00 58
20240714004903 78 262 10.0 10.0 0.00 0.00 0.00 57
20240714004701 78 275 7.0 10.0 0.00 0.00 0.00 57
20240714004459 78 278 5.0 10.0 0.00 0.00 0.00 57
20240714004257 78 278 7.0 12.0 0.00 0.00 0.00 57
20240714004056 78 279 6.0 12.0 0.00 0.00 0.00 56
20240714003853 78 268 6.0 11.0 0.00 0.00 0.00 56
20240714003651 79 281 6.0 11.0 0.00 0.00 0.00 56
20240714003449 79 265 6.0 11.0 0.00 0.00 0.00 55
20240714003247 79 264 9.0 11.0 0.00 0.00 0.00 54
20240714003045 80 272 5.0 11.0 0.00 0.00 0.00 54
20240714002439 79 286 7.0 15.0 0.00 0.00 0.00 55
20240714002036 80 275 12.0 12.0 0.00 0.00 0.00 51
20240714001833 82 292 7.0 10.0 0.00 0.00 0.00 49
20240714001632 82 257 4.0 10.0 0.00 0.00 0.00 50
20240714001429 83 274 7.0 10.0 0.00 0.00 0.00 49
20240714001228 82 274 4.0 5.0 0.00 0.00 0.00 49
20240714001026 82 236 0.0 5.0 0.00 0.00 0.00 50
20240714000823 82 198 1.0 6.0 0.00 0.00 0.00 51
20240714000622 82 210 2.0 6.0 0.00 0.00 0.00 52
20240714000218 81 194 3.0 5.0 0.00 0.00 0.00 52
20240714000016 81 229 2.0 5.0 0.00 0.00 0.00 52
20240713235814 81 203 4.0 5.0 0.00 0.00 0.00 52
20240713235612 82 208 4.0 5.0 0.00 0.00 0.00 52
20240713235410 81 77 0.0 6.0 0.00 0.00 0.00 53
20240713235006 81 296 0.0 6.0 0.00 0.00 0.00 53
20240713234805 81 171 0.0 7.0 0.00 0.00 0.00 54 202.4
20240713234602 81 230 3.0 7.0 0.00 0.00 0.00 54
20240713234400 80 201 6.0 10.0 0.00 0.00 0.00 54
20240713234158 80 164 1.0 10.0 0.00 0.00 0.00 55
20240713233956 80 312 3.0 10.0 0.00 0.00 0.00 54
20240713233754 80 274 0.0 11.0 0.00 0.00 0.00 55
20240713233350 79 307 4.0 12.0 0.00 0.00 0.00 57
20240713232946 78 288 6.0 12.0 0.00 0.00 0.00 57
20240713232744 78 309 6.0 13.0 0.00 0.00 0.00 59
20240713232542 77 292 6.0 13.0 0.00 0.00 0.00 60
20240713232340 77 300 7.0 12.0 0.00 0.00 0.00 61
20240713232139 76 271 8.0 12.0 0.00 0.00 0.00 62
20240713231937 76 274 11.0 12.0 0.00 0.00 0.00 61
20240713231735 76 291 8.0 15.0 0.00 0.00 0.00 62
20240713231331 75 274 11.0 18.0 0.00 0.00 0.00 64
20240713231129 75 284 14.0 18.0 0.00 0.00 0.00 64
20240713230725 74 268 15.0 18.0 0.00 0.00 0.00 63
20240713230523 76 268 11.0 18.0 0.00 0.00 0.00 62
20240713230326 76 268 13.0 22.0 0.00 0.00 0.00 62
20240713230321 76 268 13.0 22.0 0.00 0.00 0.00 62
20240713230119 76 250 15.0 22.0 0.00 0.00 0.00 61
20240713225917 76 250 14.0 22.0 0.00 0.00 0.00 60
20240713225715 78 272 19.0 20.0 0.00 0.00 0.00 58
20240713225514 78 246 8.0 20.0 0.00 0.00 0.00 57
20240713225311 79 268 14.0 21.0 0.00 0.00 0.00 56
20240713225109 79 265 13.0 21.0 0.00 0.00 0.00 55
20240713224907 80 254 11.0 18.0 0.00 0.00 0.00 52
20240713224706 81 236 11.0 18.0 0.00 0.00 0.00 51
20240713224504 83 264 18.0 18.0 0.00 0.00 0.00 49
20240713223858 84 251 7.0 18.0 0.00 0.00 0.00 48
20240713223656 84 262 12.0 18.0 0.00 0.00 0.00 47
20240713223454 84 268 11.0 18.0 0.00 0.00 0.00 47
20240713223252 85 274 6.0 16.0 0.00 0.00 0.00 47
20240713223050 85 261 16.0 16.0 0.00 0.00 0.00 47
20240713222848 85 261 14.0 16.0 0.00 0.00 0.00 46
20240713222647 85 268 10.0 16.0 0.00 0.00 0.00 46
20240713222444 86 260 8.0 16.0 0.00 0.00 0.00 45
20240713222249 86 264 13.0 14.0 0.00 0.00 0.00 44
20240713222242 86 264 13.0 14.0 0.00 0.00 0.00 44
20240713222040 87 258 5.0 14.0 0.00 0.00 0.00 45
20240713221838 86 253 9.0 12.0 0.00 0.00 0.00 45
20240713221638 86 281 11.0 12.0 0.00 0.00 0.00 45 202.4
20240713221636 86 281 11.0 12.0 0.00 0.00 0.00 45
20240713221435 87 271 9.0 12.0 0.00 0.00 0.00 44
20240713221030 86 246 6.0 13.0 0.00 0.00 0.00 46
20240713220829 86 272 12.0 10.0 0.00 0.00 0.00 45
20240713220626 86 285 7.0 10.0 0.00 0.00 0.00 45
20240713220424 86 260 7.0 10.0 0.00 0.00 0.00 46
20240713220223 86 288 8.0 10.0 0.00 0.00 0.00 46
20240713220021 85 279 7.0 10.0 0.00 0.00 0.00 47
20240713215617 85 295 5.0 8.0 0.00 0.00 0.00 46
20240713215415 85 264 4.0 8.0 0.00 0.00 0.00 47
20240713215213 85 282 0.0 9.0 0.00 0.00 0.00 47
20240713215011 84 303 4.0 9.0 0.00 0.00 0.00 48
20240713214809 84 331 1.0 8.0 0.00 0.00 0.00 50
20240713214607 84 282 4.0 8.0 0.00 0.00 0.00 49
20240713214203 83 272 6.0 10.0 0.00 0.00 0.00 49
20240713214001 83 336 2.0 10.0 0.00 0.00 0.00 51
20240713213759 83 275 10.0 11.0 0.00 0.00 0.00 50
20240713213557 82 272 5.0 11.0 0.00 0.00 0.00 51
20240713213355 82 278 6.0 11.0 0.00 0.00 0.00 51
20240713213153 82 284 9.0 11.0 0.00 0.00 0.00 51
20240713212952 82 282 5.0 11.0 0.00 0.00 0.00 52
20240713212748 82 278 8.0 9.0 0.00 0.00 0.00 52
20240713212548 82 312 1.0 9.0 0.00 0.00 0.00 52
20240713212345 81 281 7.0 9.0 0.00 0.00 0.00 51
20240713212148 83 286 4.0 9.0 0.00 0.00 0.00 51
20240713211940 82 270 4.0 9.0 0.00 0.00 0.00 51
20240713211739 83 299 4.0 10.0 0.00 0.00 0.00 51
20240713211538 82 274 3.0 10.0 0.00 0.00 0.00 52
20240713211336 82 284 5.0 10.0 0.00 0.00 0.00 53
20240713211132 81 284 2.0 10.0 0.00 0.00 0.00 53
20240713210930 81 267 9.0 10.0 0.00 0.00 0.00 54
20240713210730 81 253 2.0 8.0 0.00 0.00 0.00 55
20240713210526 80 278 8.0 8.0 0.00 0.00 0.00 55
20240713210326 80 288 4.0 11.0 0.00 0.00 0.00 55
20240713210124 80 277 4.0 11.0 0.00 0.00 0.00 56
20240713205114 79 255 4.0 11.0 0.00 0.00 0.00 57
20240713204912 80 281 6.0 11.0 0.00 0.00 0.00 57
20240713204711 79 212 3.0 10.0 0.00 0.00 0.00 57
20240713204508 79 284 7.0 10.0 0.00 0.00 0.00 58
20240713204307 79 268 5.0 10.0 0.00 0.00 0.00 58
20240713204103 79 264 9.0 10.0 0.00 0.00 0.00 58
20240713203903 79 274 1.0 14.0 0.00 0.00 0.00 59
20240713203700 78 275 7.0 14.0 0.00 0.00 0.00 60
20240713203458 78 248 8.0 14.0 0.00 0.00 0.00 60
20240713203256 77 257 4.0 13.0 0.00 0.00 0.00 60
20240713203055 77 277 8.0 13.0 0.00 0.00 0.00 60
20240713202449 78 254 8.0 13.0 0.00 0.00 0.00 61
20240713201841 77 253 9.0 16.0 0.00 0.00 0.00 60
20240713201641 78 274 11.0 16.0 0.00 0.00 0.00 61
20240713201439 77 267 9.0 16.0 0.00 0.00 0.00 61
20240713201239 77 277 12.0 17.0 0.00 0.00 0.00 61
20240713201036 77 250 12.0 17.0 0.00 0.00 0.00 61
20240713200832 78 262 12.0 13.0 0.00 0.00 0.00 60
20240713200428 78 217 9.0 13.0 0.00 0.00 0.00 58
20240713200026 78 270 11.0 16.0 0.00 0.00 0.00 59 202.4
20240713195825 77 255 9.0 16.0 0.00 0.00 0.00 60
20240713195620 77 262 9.0 16.0 0.00 0.00 0.00 61
20240713195420 77 265 12.0 16.0 0.00 0.00 0.00 60
20240713195218 77 274 12.0 17.0 0.00 0.00 0.00 59
20240713194410 78 264 15.0 13.0 0.00 0.00 0.00 59
20240713194208 78 260 13.0 13.0 0.00 0.00 0.00 59
20240713194006 78 274 11.0 13.0 0.00 0.00 0.00 58
20240713193804 78 278 7.0 13.0 0.00 0.00 0.00 58
20240713193602 79 267 10.0 13.0 0.00 0.00 0.00 57
20240713193400 78 272 9.0 15.0 0.00 0.00 0.00 58
20240713193200 78 260 8.0 15.0 0.00 0.00 0.00 60
20240713193158 78 260 8.0 15.0 0.00 0.00 0.00 60
20240713192956 77 274 10.0 15.0 0.00 0.00 0.00 60
20240713192754 78 265 12.0 12.0 0.00 0.00 0.00 59
20240713192552 78 262 9.0 12.0 0.00 0.00 0.00 58
20240713192350 79 255 8.0 13.0 0.00 0.00 0.00 58
20240713192148 79 272 9.0 13.0 0.00 0.00 0.00 58
20240713191947 78 274 10.0 13.0 0.00 0.00 0.00 58
20240713191744 79 275 10.0 10.0 0.00 0.00 0.00 59
20240713191542 78 275 12.0 10.0 0.00 0.00 0.00 60
20240713191340 77 267 6.0 12.0 0.00 0.00 0.00 60
20240713191138 77 277 5.0 12.0 0.00 0.00 0.00 60
20240713190935 77 267 8.0 12.0 0.00 0.00 0.00 60
20240713190735 77 277 9.0 10.0 0.00 0.00 0.00 60
20240713190532 77 288 4.0 10.0 0.00 0.00 0.00 60
20240713190331 77 270 6.0 10.0 0.00 0.00 0.00 61
20240713190129 76 257 4.0 10.0 0.00 0.00 0.00 62
20240713185927 76 278 7.0 10.0 0.00 0.00 0.00 62
20240713185725 76 295 6.0 11.0 0.00 0.00 0.00 63
20240713185523 76 278 8.0 11.0 0.00 0.00 0.00 63
20240713185321 76 288 8.0 12.0 0.00 0.00 0.00 63
20240713185118 76 271 7.0 12.0 0.00 0.00 0.00 63
20240713184917 76 277 6.0 12.0 0.00 0.00 0.00 62
20240713184514 77 264 9.0 12.0 0.00 0.00 0.00 61
20240713184312 77 268 11.0 10.0 0.00 0.00 0.00 61
20240713184110 76 310 6.0 10.0 0.00 0.00 0.00 61
20240713183908 76 264 7.0 11.0 0.00 0.00 0.00 62
20240713183706 76 282 4.0 11.0 0.00 0.00 0.00 64
20240713183502 75 281 6.0 11.0 0.00 0.00 0.00 64
20240713183302 74 286 9.0 10.0 0.00 0.00 0.00 64
20240713183100 75 274 6.0 10.0 0.00 0.00 0.00 64
20240713182858 75 270 7.0 9.0 0.00 0.00 0.00 64
20240713182655 75 278 2.0 9.0 0.00 0.00 0.00 64
20240713182452 75 275 8.0 9.0 0.00 0.00 0.00 64
20240713182252 75 279 4.0 12.0 0.00 0.00 0.00 65
20240713182050 75 286 7.0 12.0 0.00 0.00 0.00 65
20240713181649 75 270 9.0 12.0 0.00 0.00 0.00 65
20240713181644 75 270 9.0 12.0 0.00 0.00 0.00 65
20240713181442 74 267 6.0 12.0 0.00 0.00 0.00 67
20240713181240 74 267 7.0 11.0 0.00 0.00 0.00 66
20240713181040 74 262 8.0 11.0 0.00 0.00 0.00 66
20240713180836 74 261 7.0 12.0 0.00 0.00 0.00 67
20240713180635 73 251 4.0 12.0 0.00 0.00 0.00 69
20240713180435 73 274 9.0 12.0 0.00 0.00 0.00 70
20240713180233 72 260 10.0 12.0 0.00 0.00 0.00 69
20240713180031 73 295 9.0 12.0 0.00 0.00 0.00 69
20240713175828 73 279 7.0 12.0 0.00 0.00 0.00 69
20240713175626 73 282 10.0 12.0 0.00 0.00 0.00 69
20240713175424 73 257 7.0 12.0 0.00 0.00 0.00 69
20240713175222 73 278 8.0 14.0 0.00 0.00 0.00 70
20240713174817 73 260 9.0 14.0 0.00 0.00 0.00 69
20240713174616 73 295 11.0 14.0 0.00 0.00 0.00 69
20240713174415 73 241 10.0 14.0 0.00 0.00 0.00 69
20240713174213 74 277 7.0 12.0 0.00 0.00 0.00 69
20240713174010 73 268 10.0 12.0 0.00 0.00 0.00 69
20240713173810 73 254 6.0 12.0 0.00 0.00 0.00 69 202.4
20240713173607 73 265 8.0 12.0 0.00 0.00 0.00 70
20240713173406 73 285 9.0 11.0 0.00 0.00 0.00 69
20240713173208 73 264 6.0 11.0 0.00 0.00 0.00 69
20240713173205 73 264 6.0 11.0 0.00 0.00 0.00 69
20240713173203 73 264 6.0 11.0 0.00 0.00 0.00 69
20240713172959 73 284 10.0 11.0 0.00 0.00 0.00 69
20240713172758 73 268 8.0 13.0 0.00 0.00 0.00 71
20240713172555 72 278 7.0 13.0 0.00 0.00 0.00 71
20240713172355 72 288 9.0 12.0 0.00 0.00 0.00 72
20240713172153 72 271 10.0 12.0 0.00 0.00 0.00 71
20240713171951 72 282 8.0 12.0 0.00 0.00 0.00 71
20240713171749 72 296 7.0 11.0 0.00 0.00 0.00 71
20240713171547 72 284 8.0 11.0 0.00 0.00 0.00 70
20240713171345 72 295 7.0 12.0 0.00 0.00 0.00 71
20240713171143 72 279 8.0 12.0 0.00 0.00 0.00 71
20240713170941 71 278 6.0 12.0 0.00 0.00 0.00 71
20240713170538 71 286 8.0 11.0 0.00 0.00 0.00 73
20240713170134 71 274 9.0 10.0 0.00 0.00 0.00 72
20240713165932 71 265 7.0 10.0 0.00 0.00 0.00 73
20240713165730 71 295 6.0 9.0 0.00 0.00 0.00 75
20240713165530 70 272 5.0 9.0 0.00 0.00 0.00 75
20240713165528 70 272 5.0 9.0 0.00 0.00 0.00 75
20240713165326 70 282 6.0 8.0 0.00 0.00 0.00 76
20240713165124 70 313 4.0 8.0 0.00 0.00 0.00 76
20240713164922 69 284 6.0 8.0 0.00 0.00 0.00 78
20240713164720 69 302 7.0 9.0 0.00 0.00 0.00 77
20240713164518 69 281 7.0 9.0 0.00 0.00 0.00 78
20240713164114 68 284 8.0 9.0 0.00 0.00 0.00 81
20240713163912 68 261 5.0 9.0 0.00 0.00 0.00 80
20240713163709 68 284 6.0 11.0 0.00 0.00 0.00 81
20240713163511 68 275 6.0 11.0 0.00 0.00 0.00 81
20240713163507 68 275 6.0 11.0 0.00 0.00 0.00 81
20240713163308 67 282 6.0 11.0 0.00 0.00 0.00 81
20240713163105 68 281 7.0 11.0 0.00 0.00 0.00 81
20240713162903 67 277 10.0 11.0 0.00 0.00 0.00 82
20240713162700 67 284 10.0 11.0 0.00 0.00 0.00 83
20240713162459 67 282 8.0 11.0 0.00 0.00 0.00 83
20240713161448 67 278 6.0 9.0 0.00 0.00 0.00 82
20240713161046 67 282 6.0 10.0 0.00 0.00 0.00 83
20240713160844 67 271 8.0 9.0 0.00 0.00 0.00 83
20240713160642 67 288 7.0 9.0 0.00 0.00 0.00 83
20240713160440 67 285 7.0 9.0 0.00 0.00 0.00 82
20240713160036 68 274 6.0 11.0 0.00 0.00 0.00 81
20240713155834 68 281 6.0 8.0 0.00 0.00 0.00 82
20240713155431 68 289 8.0 8.0 0.00 0.00 0.00 81
20240713155229 68 281 7.0 7.0 0.00 0.00 0.00 79
20240713155027 69 281 5.0 7.0 0.00 0.00 0.00 78
20240713154421 69 282 3.0 7.0 0.00 0.00 0.00 77
20240713154017 69 270 0.0 4.0 0.00 0.00 0.00 78
20240713153817 69 239 1.0 3.0 0.00 0.00 0.00 79
20240713153815 69 239 1.0 3.0 0.00 0.00 0.00 79
20240713153613 68 240 0.0 3.0 0.00 0.00 0.00 80
20240713153411 68 158 0.0 3.0 0.00 0.00 0.00 80
20240713153210 68 158 0.0 4.0 0.00 0.00 0.00 80
20240713153006 68 225 2.0 4.0 0.00 0.00 0.00 80
20240713152806 67 137 1.0 4.0 0.00 0.00 0.00 82
20240713152604 67 115 2.0 4.0 0.00 0.00 0.00 83
20240713152402 66 135 1.0 2.0 0.00 0.00 0.00 85
20240713152200 66 137 3.0 2.0 0.00 0.00 0.00 86
20240713151958 65 87 2.0 2.0 0.00 0.00 0.00 88
20240713151756 65 92 0.0 3.0 0.00 0.00 0.00 89
20240713151555 64 187 1.0 3.0 0.00 0.00 0.00 90
20240713151352 64 160 0.0 3.0 0.00 0.00 0.00 92
20240713151151 64 209 1.0 3.0 0.00 0.00 0.00 91
20240713150949 64 198 1.0 3.0 0.00 0.00 0.00 93
20240713150747 63 146 1.0 3.0 0.00 0.00 0.00 94
20240713150545 63 105 0.0 3.0 0.00 0.00 0.00 95
20240713150343 63 158 1.0 3.0 0.00 0.00 0.00 95
20240713150141 63 278 0.0 3.0 0.00 0.00 0.00 95
20240713145939 63 295 2.0 3.0 0.00 0.00 0.00 95
20240713145737 62 87 0.0 1.0 0.00 0.00 0.00 95
20240713145538 62 87 0.0 1.0 0.00 0.00 0.00 95
20240713145534 62 87 0.0 1.0 0.00 0.00 0.00 95
20240713145333 62 133 0.0 1.0 0.00 0.00 0.00 95
20240713145132 62 201 0.0 1.0 0.00 0.00 0.00 95
20240713144929 62 201 0.0 1.0 0.00 0.00 0.00 95
20240713144729 62 201 0.0 2.0 0.00 0.00 0.00 95
20240713144324 62 233 0.0 1.0 0.00 0.00 0.00 95
20240713143920 62 175 0.0 1.0 0.00 0.00 0.00 95
20240713143718 62 258 0.0 0.0 0.00 0.00 0.00 95
20240713143516 62 258 0.0 0.0 0.00 0.00 0.00 96
20240713143112 61 258 0.0 0.0 0.00 0.00 0.00 95
20240713142910 61 258 0.0 0.0 0.00 0.00 0.00 95
20240713142709 61 258 0.0 0.0 0.00 0.00 0.00 95
20240713142507 61 258 0.0 0.0 0.00 0.00 0.00 95
20240713142306 61 258 0.0 1.0 0.00 0.00 0.00 95
20240713142103 61 258 0.0 1.0 0.00 0.00 0.00 95
20240713141901 61 258 0.0 2.0 0.00 0.00 0.00 95
20240713141659 61 262 0.0 2.0 0.00 0.00 0.00 95
20240713141458 61 262 0.0 2.0 0.00 0.00 0.00 95
20240713141255 61 262 0.0 1.0 0.00 0.00 0.00 95
20240713141053 61 262 0.0 1.0 0.00 0.00 0.00 95
20240713140851 61 267 1.0 2.0 0.00 0.00 0.00 95
20240713140650 61 90 0.0 2.0 0.00 0.00 0.00 95
20240713140446 61 90 0.0 2.0 0.00 0.00 0.00 95
20240713140246 61 90 0.0 0.0 0.00 0.00 0.00 95
20240713140044 61 241 0.0 0.0 0.00 0.00 0.00 95
20240713135842 61 241 0.0 0.0 0.00 0.00 0.00 95
20240713135638 61 241 0.0 0.0 0.00 0.00 0.00 95
20240713135235 61 241 0.0 0.0 0.00 0.00 0.00 95